Radiation Dose at Monitoring Post of Fukushima Daini Nuclear Power Station
Date,Time,MP-1(microSv/h),MP-2(microSv/h),MP-3(microSv/h),MP-4(microSv/h),MP-5(microSv/h),MP-6(microSv/h),MP-7(microSv/h),Wind Direction,Wind Velocity(m/s),Rain
2022/04/14,00:00,0.160,0.145,0.233,0.226,0.225,0.125,0.080,north-northwest,6.3,No
2022/04/14,00:10,0.160,0.145,0.232,0.224,0.224,0.126,0.080,north-northwest,6.1,No
2022/04/14,00:20,0.159,0.144,0.232,0.224,0.224,0.125,0.081,north-northwest,6.0,No
2022/04/14,00:30,0.159,0.145,0.232,0.225,0.224,0.126,0.080,north-northwest,6.5,No
2022/04/14,00:40,0.161,0.144,0.232,0.223,0.224,0.125,0.081,north-northwest,5.7,No
2022/04/14,00:50,0.159,0.144,0.232,0.224,0.225,0.125,0.079,north-northwest,5.4,No
2022/04/14,01:00,0.159,0.145,0.233,0.224,0.225,0.125,0.079,north,5.8,No
2022/04/14,01:10,0.159,0.144,0.231,0.223,0.224,0.126,0.080,north-northwest,5.9,No
2022/04/14,01:20,0.159,0.144,0.233,0.225,0.224,0.126,0.080,north,6.5,No
2022/04/14,01:30,0.159,0.145,0.233,0.224,0.224,0.126,0.080,north,6.0,No
2022/04/14,01:40,0.160,0.145,0.232,0.224,0.224,0.126,0.079,north-northwest,7.2,No
2022/04/14,01:50,0.160,0.143,0.233,0.226,0.225,0.125,0.080,north-northwest,6.8,No
2022/04/14,02:00,0.160,0.146,0.234,0.225,0.225,0.125,0.080,north,6.2,No
2022/04/14,02:10,0.160,0.144,0.233,0.223,0.225,0.125,0.080,north,5.9,No
2022/04/14,02:20,0.159,0.145,0.232,0.225,0.223,0.127,0.079,north,7.0,No
2022/04/14,02:30,0.159,0.145,0.232,0.224,0.225,0.126,0.079,north-northwest,6.6,No
2022/04/14,02:40,0.159,0.145,0.234,0.225,0.224,0.125,0.080,north,7.2,No
2022/04/14,02:50,0.159,0.145,0.232,0.224,0.223,0.126,0.079,north-northwest,7.3,No
2022/04/14,03:00,0.160,0.145,0.232,0.225,0.225,0.126,0.079,north-northwest,7.7,No
2022/04/14,03:10,0.158,0.145,0.233,0.224,0.224,0.124,0.079,north-northwest,7.9,No
2022/04/14,03:20,0.160,0.144,0.233,0.225,0.224,0.126,0.080,north-northwest,7.0,No
2022/04/14,03:30,0.159,0.144,0.233,0.224,0.225,0.126,0.080,north-northwest,6.9,No
2022/04/14,03:40,0.159,0.144,0.234,0.225,0.223,0.124,0.080,north-northwest,7.3,No
2022/04/14,03:50,0.160,0.144,0.233,0.226,0.225,0.125,0.079,north-northwest,7.1,No
2022/04/14,04:00,0.159,0.144,0.232,0.224,0.225,0.127,0.080,north,6.6,No
2022/04/14,04:10,0.159,0.144,0.232,0.225,0.224,0.126,0.079,north-northwest,6.6,No
2022/04/14,04:20,0.160,0.145,0.232,0.226,0.225,0.125,0.080,north-northwest,7.5,Yes
2022/04/14,04:30,0.160,0.145,0.232,0.225,0.225,0.126,0.080,north-northwest,6.5,Yes
2022/04/14,04:40,0.159,0.146,0.233,0.225,0.224,0.126,0.080,north-northwest,6.6,Yes
2022/04/14,04:50,0.160,0.145,0.234,0.224,0.225,0.126,0.080,north-northwest,6.1,Yes
2022/04/14,05:00,0.160,0.145,0.233,0.224,0.224,0.126,0.081,north-northwest,6.2,Yes
2022/04/14,05:10,0.160,0.146,0.233,0.226,0.224,0.126,0.080,north-northwest,6.6,Yes
2022/04/14,05:20,0.160,0.145,0.234,0.224,0.225,0.126,0.079,north-northwest,6.1,No
2022/04/14,05:30,0.159,0.145,0.233,0.224,0.224,0.125,0.080,north-northwest,6.3,No
2022/04/14,05:40,0.159,0.146,0.232,0.225,0.223,0.126,0.079,north-northwest,6.5,No
2022/04/14,05:50,0.160,0.144,0.232,0.226,0.225,0.127,0.080,north-northwest,6.6,No
2022/04/14,06:00,0.161,0.144,0.233,0.224,0.224,0.125,0.081,north-northwest,6.0,No
2022/04/14,06:10,0.160,0.145,0.233,0.224,0.223,0.126,0.079,north-northwest,7.8,No
2022/04/14,06:20,0.160,0.145,0.233,0.225,0.224,0.125,0.079,north-northwest,7.3,Yes
2022/04/14,06:30,0.160,0.146,0.233,0.225,0.224,0.126,0.080,north-northwest,7.3,Yes
2022/04/14,06:40,0.161,0.146,0.233,0.225,0.225,0.126,0.079,north-northwest,6.5,Yes
2022/04/14,06:50,0.161,0.145,0.233,0.225,0.224,0.127,0.080,north-northwest,7.0,Yes
2022/04/14,07:00,0.159,0.146,0.233,0.226,0.224,0.127,0.081,north-northwest,5.5,Yes
2022/04/14,07:10,0.161,0.148,0.234,0.225,0.226,0.127,0.081,north-northwest,5.2,Yes
2022/04/14,07:20,0.161,0.146,0.234,0.226,0.225,0.128,0.081,north-northwest,6.1,Yes
2022/04/14,07:30,0.162,0.146,0.235,0.227,0.226,0.127,0.082,north,6.0,Yes
2022/04/14,07:40,0.162,0.148,0.235,0.226,0.226,0.128,0.082,north,5.7,Yes
2022/04/14,07:50,0.163,0.148,0.235,0.227,0.226,0.128,0.082,north-northwest,6.6,Yes
2022/04/14,08:00,0.162,0.146,0.235,0.227,0.226,0.127,0.082,north,6.4,Yes
2022/04/14,08:10,0.163,0.148,0.234,0.227,0.227,0.129,0.082,north,7.0,Yes
2022/04/14,08:20,0.163,0.148,0.234,0.226,0.226,0.128,0.083,north-northwest,5.5,Yes
2022/04/14,08:30,0.163,0.147,0.235,0.227,0.225,0.128,0.082,north,6.6,Yes
2022/04/14,08:40,0.161,0.147,0.234,0.226,0.226,0.128,0.082,north,7.8,Yes
2022/04/14,08:50,0.161,0.147,0.235,0.227,0.225,0.128,0.082,north,6.2,Yes
2022/04/14,09:00,0.161,0.147,0.235,0.226,0.224,0.129,0.082,north,7.0,Yes
2022/04/14,09:10,0.162,0.147,0.234,0.225,0.225,0.128,0.083,north,8.6,Yes
2022/04/14,09:20,0.161,0.148,0.234,0.225,0.224,0.128,0.083,north,6.5,Yes
2022/04/14,09:30,0.161,0.146,0.234,0.224,0.224,0.128,0.082,north,7.7,Yes
2022/04/14,09:40,0.161,0.146,0.233,0.226,0.225,0.129,0.081,north,7.6,Yes
2022/04/14,09:50,0.160,0.146,0.233,0.226,0.224,0.128,0.082,north,7.4,Yes
2022/04/14,10:00,0.161,0.146,0.232,0.224,0.225,0.127,0.081,north,7.7,Yes
2022/04/14,10:10,0.161,0.146,0.233,0.223,0.224,0.127,0.081,north,7.9,Yes
2022/04/14,10:20,0.161,0.146,0.232,0.224,0.224,0.127,0.081,north,6.9,Yes
2022/04/14,10:30,0.161,0.145,0.232,0.223,0.223,0.126,0.080,north,7.1,Yes
2022/04/14,10:40,0.160,0.144,0.231,0.222,0.224,0.126,0.081,north,6.4,Yes
2022/04/14,10:50,0.160,0.145,0.233,0.223,0.224,0.127,0.081,north,7.0,Yes
2022/04/14,11:00,0.160,0.144,0.232,0.223,0.223,0.126,0.081,north,6.6,Yes
2022/04/14,11:10,0.160,0.146,0.233,0.222,0.224,0.127,0.081,north,5.5,Yes
2022/04/14,11:20,0.160,0.146,0.232,0.224,0.224,0.126,0.081,north,6.5,Yes
2022/04/14,11:30,0.162,0.146,0.233,0.224,0.223,0.126,0.081,north,5.8,Yes
2022/04/14,11:40,0.161,0.147,0.232,0.223,0.224,0.127,0.081,north,6.1,Yes
2022/04/14,11:50,0.161,0.145,0.233,0.223,0.224,0.127,0.081,north,6.5,Yes
2022/04/14,12:00,0.160,0.145,0.232,0.223,0.223,0.127,0.081,north-northwest,5.9,Yes
2022/04/14,12:10,0.160,0.145,0.232,0.223,0.224,0.125,0.080,north-northwest,6.4,Yes
2022/04/14,12:20,0.159,0.145,0.232,0.224,0.223,0.127,0.081,north-northwest,6.5,Yes
2022/04/14,12:30,0.159,0.144,0.232,0.223,0.222,0.126,0.080,north,6.4,Yes
2022/04/14,12:40,0.159,0.146,0.232,0.222,0.224,0.126,0.081,north,6.2,Yes
2022/04/14,12:50,0.159,0.145,0.231,0.222,0.224,0.126,0.081,north,7.2,Yes
2022/04/14,13:00,0.159,0.145,0.231,0.222,0.224,0.125,0.080,north-northwest,6.3,Yes
2022/04/14,13:10,0.161,0.146,0.233,0.224,0.223,0.125,0.080,north,6.6,Yes
2022/04/14,13:20,0.160,0.146,0.231,0.223,0.223,0.127,0.081,north-northwest,7.0,Yes
2022/04/14,13:30,0.160,0.145,0.232,0.224,0.224,0.126,0.080,north-northwest,6.4,Yes
2022/04/14,13:40,0.161,0.145,0.231,0.222,0.222,0.126,0.080,north-northwest,7.4,Yes
2022/04/14,13:50,0.160,0.145,0.232,0.222,0.223,0.125,0.080,north-northwest,7.7,Yes
2022/04/14,14:00,0.159,0.144,0.232,0.222,0.223,0.126,0.080,north-northwest,6.2,Yes
2022/04/14,14:10,0.159,0.145,0.231,0.222,0.222,0.125,0.080,north-northwest,6.4,Yes
2022/04/14,14:20,0.159,0.144,0.231,0.223,0.223,0.125,0.080,north-northwest,6.4,Yes
2022/04/14,14:30,0.160,0.143,0.231,0.222,0.222,0.125,0.080,north-northwest,6.2,Yes
2022/04/14,14:40,0.159,0.144,0.231,0.221,0.224,0.126,0.080,north-northwest,6.5,Yes
2022/04/14,14:50,0.159,0.144,0.231,0.223,0.222,0.126,0.080,north,5.7,Yes
2022/04/14,15:00,0.159,0.144,0.231,0.222,0.223,0.126,0.080,north-northwest,6.9,Yes
2022/04/14,15:10,0.159,0.144,0.231,0.222,0.222,0.126,0.080,north-northwest,6.4,Yes
2022/04/14,15:20,0.160,0.144,0.232,0.222,0.223,0.126,0.081,north,7.7,Yes
2022/04/14,15:30,0.159,0.144,0.231,0.223,0.223,0.126,0.081,north,6.6,Yes
2022/04/14,15:40,0.161,0.146,0.232,0.222,0.223,0.126,0.081,north,6.4,Yes
2022/04/14,15:50,0.159,0.145,0.231,0.222,0.223,0.126,0.080,north,6.3,Yes
2022/04/14,16:00,0.160,0.145,0.232,0.223,0.223,0.126,0.080,north,7.1,Yes
2022/04/14,16:10,0.160,0.145,0.231,0.223,0.224,0.127,0.080,north,6.8,Yes
2022/04/14,16:20,0.160,0.144,0.232,0.222,0.224,0.126,0.081,north-northwest,7.4,Yes
2022/04/14,16:30,0.159,0.144,0.231,0.222,0.224,0.127,0.081,north-northwest,7.1,Yes
2022/04/14,16:40,0.160,0.146,0.231,0.222,0.223,0.125,0.080,north-northwest,7.7,Yes
2022/04/14,16:50,0.160,0.145,0.231,0.223,0.223,0.127,0.081,north-northwest,5.9,Yes
2022/04/14,17:00,0.160,0.145,0.231,0.222,0.222,0.127,0.081,north-northwest,6.2,Yes
2022/04/14,17:10,0.160,0.145,0.230,0.223,0.223,0.126,0.081,north-northwest,7.2,Yes
2022/04/14,17:20,0.159,0.145,0.231,0.223,0.223,0.126,0.081,north-northwest,6.9,Yes
2022/04/14,17:30,0.160,0.145,0.231,0.222,0.223,0.126,0.080,north-northwest,6.1,Yes
2022/04/14,17:40,0.160,0.144,0.230,0.220,0.222,0.126,0.080,north-northwest,6.6,Yes
2022/04/14,17:50,0.159,0.145,0.230,0.221,0.222,0.124,0.080,north,6.1,Yes
2022/04/14,18:00,0.159,0.144,0.230,0.222,0.222,0.126,0.080,north-northwest,6.5,Yes
2022/04/14,18:10,0.159,0.144,0.231,0.221,0.222,0.125,0.079,north-northwest,6.2,Yes
2022/04/14,18:20,0.159,0.144,0.231,0.222,0.222,0.126,0.080,north-northwest,5.9,Yes
2022/04/14,18:30,0.160,0.146,0.230,0.222,0.222,0.126,0.081,north-northwest,7.3,Yes
2022/04/14,18:40,0.161,0.145,0.230,0.223,0.220,0.127,0.081,north-northwest,6.3,Yes
2022/04/14,18:50,0.160,0.145,0.231,0.222,0.223,0.126,0.081,north-northwest,7.3,Yes
2022/04/14,19:00,0.160,0.146,0.232,0.222,0.224,0.128,0.081,north-northwest,6.6,Yes
2022/04/14,19:10,0.161,0.146,0.230,0.222,0.223,0.127,0.082,north-northwest,7.2,Yes
2022/04/14,19:20,0.160,0.146,0.231,0.221,0.223,0.127,0.082,northwest,7.6,Yes
2022/04/14,19:30,0.160,0.146,0.230,0.222,0.223,0.127,0.082,north-northwest,7.5,Yes
2022/04/14,19:40,0.160,0.146,0.231,0.222,0.224,0.127,0.082,north-northwest,7.8,Yes
2022/04/14,19:50,0.161,0.145,0.230,0.221,0.223,0.127,0.080,north-northwest,6.5,Yes
2022/04/14,20:00,0.160,0.145,0.229,0.222,0.223,0.127,0.082,north-northwest,7.3,Yes
2022/04/14,20:10,0.160,0.145,0.230,0.219,0.223,0.126,0.081,north-northwest,7.2,Yes
2022/04/14,20:20,0.159,0.145,0.230,0.220,0.222,0.127,0.081,north-northwest,7.6,Yes
2022/04/14,20:30,0.160,0.145,0.229,0.220,0.222,0.127,0.081,north-northwest,7.4,Yes
2022/04/14,20:40,0.159,0.145,0.229,0.220,0.221,0.126,0.080,north-northwest,7.3,Yes
2022/04/14,20:50,0.158,0.144,0.229,0.221,0.222,0.126,0.080,north-northwest,6.9,Yes
2022/04/14,21:00,0.159,0.144,0.229,0.220,0.221,0.124,0.080,north-northwest,7.3,Yes
2022/04/14,21:10,0.160,0.143,0.228,0.219,0.222,0.126,0.079,northwest,8.4,Yes
2022/04/14,21:20,0.159,0.144,0.228,0.219,0.221,0.126,0.080,north-northwest,8.1,Yes
2022/04/14,21:30,0.158,0.144,0.227,0.219,0.221,0.125,0.079,north-northwest,7.7,Yes
2022/04/14,21:40,0.158,0.143,0.228,0.219,0.222,0.126,0.080,north-northwest,8.2,Yes
2022/04/14,21:50,0.160,0.144,0.227,0.220,0.221,0.126,0.080,north-northwest,7.8,Yes
2022/04/14,22:00,0.159,0.144,0.228,0.220,0.222,0.125,0.080,north-northwest,8.1,Yes
2022/04/14,22:10,0.158,0.143,0.228,0.218,0.220,0.125,0.079,northwest,7.5,Yes
2022/04/14,22:20,0.158,0.143,0.227,0.219,0.220,0.125,0.079,north-northwest,7.6,Yes
2022/04/14,22:30,0.159,0.143,0.227,0.218,0.220,0.125,0.080,northwest,7.5,Yes
2022/04/14,22:40,0.159,0.144,0.227,0.219,0.221,0.125,0.080,north-northwest,7.1,Yes
2022/04/14,22:50,0.158,0.143,0.227,0.218,0.219,0.125,0.081,north-northwest,6.6,Yes
2022/04/14,23:00,0.159,0.144,0.227,0.218,0.221,0.125,0.081,northwest,7.1,Yes
2022/04/14,23:10,0.159,0.144,0.227,0.217,0.222,0.125,0.081,north-northwest,5.9,Yes
2022/04/14,23:20,0.158,0.144,0.225,0.216,0.220,0.125,0.081,north-northwest,8.1,Yes
2022/04/14,23:30,0.159,0.144,0.227,0.218,0.220,0.126,0.081,northwest,7.3,Yes
2022/04/14,23:40,0.157,0.144,0.225,0.216,0.221,0.125,0.081,north-northwest,7.3,Yes
2022/04/14,23:50,0.158,0.144,0.225,0.217,0.220,0.125,0.081,northwest,7.7,Yes
